Regional Weather Roundup
Issued by NWS

Home | Current Version | Previous Version | Text Only | Print | Product List | Glossary On
Versions: 1 2 3 4 5 6 7 8 9 10 11 12 13 14 15 16 17 18 19 20 21 22 23 24 25 26 27 28 29 30 31 32 33 34 35 36 37 38 39 40 41 42 43 44 45 46 47 48 49 50
000
ASUS44 KFWD 261715
RWRTX
NORTH TEXAS HOURLY WEATHER ROUNDUP
NATIONAL WEATHER SERVICE FORT WORTH TX
1200 PM CDT WED APR 26 2017

NOTE: "FAIR" INDICATES FEW OR NO CLOUDS BELOW 12,000 FEET WITH NO
SIGNIFICANT WEATHER AND/OR OBSTRUCTIONS TO VISIBILITY.

TXZ118-119-261800-
DALLAS/FORT WORTH METROPLEX

CITY           SKY/WX    TMP DP  RH WIND       PRES   REMARKS
DFW AIRPORT    CLOUDY    63  56  78 NW24G32   29.59R
DALLAS LOVE    CLOUDY    63  58  83 N18G30    29.58R
FTW MEACHAM    CLOUDY    59  52  77 NW24G32   29.63R
DAL-EXECUTIVE  CLOUDY    64  62  93 NW13      29.57R
FTW-ALLIANCE   CLOUDY    59  51  75 NW21G31   29.63R
FTW-NAS-JRB    CLOUDY    60  51  72 NW24      29.64R
FTW-SPINKS     PTSUNNY   63  54  72 NW17G31   29.63R
ARLINGTON      CLOUDY    65  57  75 NW21G28   29.59R
GRAND PRAIRIE  PTSUNNY   64  55  72 MISG      29.61R
ADDISON        CLOUDY    61  57  88 NW15G24   29.60R
MESQUITE       CLOUDY    63  63 100 NW13G22   29.55R
LANCASTER      CLOUDY    63  60  90 NW13G22   29.56R
$$

TXZ091>094-102>105-117-120-121-131>134-261800-
NORTH CENTRAL TEXAS

CITY           SKY/WX    TMP DP  RH WIND       PRES   REMARKS
SHRMAN/DENISON CLOUDY    54  51  89 NW14      29.64R
GAINESVILLE    CLOUDY    52  47  82 N22G29    29.67R
BOWIE          CLOUDY    52  47  83 NW20      29.69R
BRIDGEPORT     CLOUDY    55  47  74 NW18G25   29.71R
DECATUR        CLOUDY    54  47  77 NW15G24   29.66R
DENTON         CLOUDY    56  50  80 NW24G30   29.63R
MCKINNEY       CLOUDY    60  58  92 NW20      29.58R
BONHAM         CLOUDY    55  52  88 N13G18    29.58R
GREENVILLE     CLOUDY    64  63  94 N13G20    29.53R
ROCKWALL       CLOUDY    63  62  99 N15       29.55R
TERRELL        LGT RAIN  66  64  93 NW17G23   29.51R
WAXAHACHIE     CLOUDY    67  63  87 NW16G22   29.57R
CLEBURNE       CLOUDY    64  59  82 N25G35    29.63R
GRANBURY       CLOUDY    61  52  73 NW18G30   29.68R
$$

TXZ083>090-098>101-113>116-127>130-139>142-154-155-261800-
WESTERN NORTH TEXAS

CITY           SKY/WX    TMP DP  RH WIND       PRES   REMARKS
WICHITA FALLS  CLOUDY    53  42  66 N18       29.72R
VERNON         CLOUDY    53  37  55 N20G25    29.77R
ABILENE        PTSUNNY   66  50  56 N17G30    29.72R
ABILENE-DYESS  SUNNY     67  51  56 N32G43    29.71R
GRAHAM         CLOUDY    53  47  82 N15G22    29.71R
BRECKENRIDGE   CLOUDY    58  48  70 N16       29.72R
CISCO          CLOUDY    59  52  77 N18G28    29.71R
RANGER         CLOUDY    58  52  79 N14G23    29.71R
MINERAL WELLS  CLOUDY    57  48  72 NW20G28   29.68R
STEPHENVILLE   CLOUDY    63  53  70 NW17G29   29.70R
COMANCHE       PTSUNNY   69  56  61 N22G28    29.66R
BROWNWOOD      SUNNY     77  48  36 W16G25    29.66R
COLEMAN        SUNNY     76  36  23 NW20G32   29.68R
$$

TXZ143>147-156>162-174-175-261800-
CENTRAL TEXAS

CITY           SKY/WX    TMP DP  RH WIND       PRES   REMARKS
WACO           MOSUNNY   81  67  62 NW14G22   29.53R
WACO-TSTC        N/A     82  66  57 NW17G23   29.53
WACO-MCGREGOR  MOSUNNY   83  68  60 NW15      29.55R
HILLSBORO      PTSUNNY   73  63  71 NW17      29.55R
CORSICANA      PTSUNNY   83  71  67 SW14G23   29.51S
MEXIA          CLOUDY    82  70  66 SW18G26   29.51S
HEARNE         CLOUDY    83  72  69 SW10G16   29.55R
CAMERON        PTSUNNY   85  70  61 SW14G20   29.54R
TEMPLE         MOSUNNY   87  67  51 W18       29.55R HX  90
KILLEEN        SUNNY     82  58  43 W16       29.58R
KILLEEN-SKYLRK MOSUNNY   84  64  50 NW21      29.57R
FORT HOOD      MOSUNNY   83  61  47 NW18      29.54R
GATESVILLE     SUNNY     81  55  41 W9        29.59R
HAMILTON       SUNNY     80  55  41 NW18G26   29.62R
LAMPASAS       SUNNY     81  51  35 W14G21    29.60R
$$

TXZ095>097-106>112-122>126-135>138-148>153-164>167-261800-
EAST TEXAS

CITY           SKY/WX    TMP DP  RH WIND       PRES   REMARKS
PARIS          CLOUDY    63  57  82 N14       29.53F
SULPHUR SPRNGS TSTM      66  65  97 N12       29.52F
MOUNT PLEASANT PTSUNNY   75  68  78 W6        29.50F
GILMER         CLOUDY    77  68  74 S10       29.50S
MINEOLA        CLOUDY    79  70  73 SW12G18   29.47F THUNDER
TYLER          CLOUDY    78  69  73 S13       29.49S
LONGVIEW       PTSUNNY   80  70  71 S22G29    29.50R
MARSHALL       CLOUDY    78  67  68 S16G24    29.53S
ATHENS         CLOUDY    79  68  69 SW7       29.49S
PALESTINE      PTSUNNY   81  71  71 S16G24    29.52S
JACKSONVILLE   MOSUNNY   80  69  70 S17G26    29.54S
HENDERSON      PTSUNNY   81  68  65 S8G29     29.52S
CENTER         PTSUNNY   83  72  68 S16       29.55F
NACOGDOCHES    PTSUNNY   81  70  69 S18       29.53S
LUFKIN         PTSUNNY   81  69  67 S12G21    29.55S
$$

SUPPLEMENTAL OBSERVATIONS (CENTRAL)

CITY           SKY/WX    TMP DP  RH WIND       PRES   REMARKS
CADDO GRASSLND   N/A     57  52  82 N5          N/A
MCGREGOR         N/A     84  66  54 NW7G18      N/A
TEMPLE           N/A     88  64  45 W14G22      N/A
$$

SUPPLEMENTAL OBSERVATIONS (WEST)

CITY           SKY/WX    TMP DP  RH WIND       PRES   REMARKS
POSSUM KINGDOM   N/A     54  48  82 N16G24      N/A
LBJ GRASSLAND    N/A     54  45  71 NW13G24     N/A
GRANBURY         N/A     61  52  72 NW23G35     N/A
HAMBY            N/A     59  48  67 N16G26      N/A
$$

SUPPLEMENTAL OBSERVATIONS (EAST)

CITY           SKY/WX    TMP DP  RH WIND       PRES   REMARKS
TEXARKANA        N/A     77  68  73 S6G16       N/A
LINDEN           N/A     79  70  73 S5G18       N/A
HENDERSON        N/A     81  68  65 S18G26      N/A
LUFKIN           N/A     84  70  61 MISG        N/A
N SABINE NF      N/A     81  72  74 MISG        N/A
$$

SUPPLEMENTAL OBSERVATIONS ARE A COLLECTION OF AUTOMATED INSTRUMENTS
THAT ARE MAINTAINED BY A VARIETY OF FEDERAL AND STATE AGENCIES.
CERTAIN ELEMENTS...SUCH AS HUMIDITY VALUES AND SUSTAINED WIND
SPEEDS...MAY BE APPROXIMATED.




USA.gov is the U.S. government's official web portal to all federal, state and local government web resources and services.